THY7KF LTFM-LOWW

Flight info

Callsign THY7KF
Flight time 1h 42m
Altitude 38000
Route TUDBU DCT ETUBA DCT APROB DCT BALUX DCT TORNO DCT NATEX NATEX2W
Aircraft B77W/H-SDE1E2E3FGHIJ2J3J4J5M1RWXY/LB1D1

Departure

Time 2026-05-05 07:57
Airport İstanbul Airport (LTFM)

Arrival

Time 2026-05-05 09:39
Airport Vienna International Airport (LOWW)
Time Latitude Longitude Altitude Speed Heading
2026-05-05 07:15 41.26789 28.73615 337 ft 0 kts 179°
2026-05-05 07:47 41.26809 28.73614 333 ft 4 kts 178°
2026-05-05 07:47 41.26832 28.73613 333 ft 4 kts 183°
2026-05-05 07:48 41.26856 28.73620 333 ft 4 kts 218°
2026-05-05 07:48 41.26871 28.73647 333 ft 4 kts 257°
2026-05-05 07:48 41.26873 28.73681 333 ft 4 kts 269°
2026-05-05 07:48 41.26874 28.73699 333 ft 0 kts 269°
2026-05-05 07:51 41.26874 28.73686 333 ft 5 kts 269°
2026-05-05 07:51 41.26873 28.73677 333 ft 1 kts 269°
2026-05-05 07:52 41.26873 28.73657 333 ft 5 kts 269°
2026-05-05 07:52 41.26872 28.73578 334 ft 13 kts 269°
2026-05-05 07:52 41.26870 28.73438 335 ft 17 kts 269°
2026-05-05 07:52 41.26869 28.73270 335 ft 19 kts 269°
2026-05-05 07:53 41.26866 28.73085 336 ft 14 kts 268°
2026-05-05 07:53 41.26836 28.72995 337 ft 12 kts 198°
2026-05-05 07:53 41.26745 28.72992 337 ft 15 kts 179°
2026-05-05 07:53 41.26633 28.72995 335 ft 18 kts 179°
2026-05-05 07:54 41.26501 28.72999 336 ft 20 kts 179°
2026-05-05 07:54 41.26354 28.73002 335 ft 21 kts 179°
2026-05-05 07:54 41.26263 28.73004 334 ft 10 kts 179°
2026-05-05 07:54 41.26218 28.72957 336 ft 9 kts 262°
2026-05-05 07:55 41.26215 28.72874 336 ft 9 kts 268°
2026-05-05 07:55 41.26213 28.72789 338 ft 9 kts 268°
2026-05-05 07:55 41.26211 28.72699 339 ft 11 kts 269°
2026-05-05 07:55 41.26209 28.72594 334 ft 11 kts 269°
2026-05-05 07:56 41.26231 28.72533 335 ft 7 kts 338°
2026-05-05 07:56 41.26268 28.72526 339 ft 4 kts 357°
2026-05-05 07:56 41.26364 28.72522 334 ft 32 kts 359°
2026-05-05 07:56 41.26871 28.72511 335 ft 113 kts 359°
2026-05-05 07:57 41.27890 28.72482 399 ft 170 kts 359°
2026-05-05 07:57 41.29050 28.72451 1293 ft 162 kts 360°
2026-05-05 07:57 41.30203 28.72447 2078 ft 169 kts
2026-05-05 07:57 41.31435 28.72462 2593 ft 189 kts
2026-05-05 07:58 41.32857 28.72479 2865 ft 221 kts
2026-05-05 07:58 41.34491 28.72501 3345 ft 242 kts
2026-05-05 07:58 41.36191 28.72520 4273 ft 246 kts
2026-05-05 07:58 41.37901 28.72503 5259 ft 244 kts 354°
2026-05-05 07:59 41.39518 28.71780 6031 ft 249 kts 335°
2026-05-05 07:59 41.41087 28.70729 6902 ft 252 kts 337°
2026-05-05 07:59 41.42668 28.69714 7850 ft 253 kts 337°
2026-05-05 07:59 41.44270 28.68690 8708 ft 258 kts 337°
2026-05-05 08:00 41.45904 28.67645 9562 ft 264 kts 337°
2026-05-05 08:00 41.47581 28.66572 10323 ft 272 kts 337°
2026-05-05 08:00 41.49362 28.65433 10663 ft 298 kts 336°
2026-05-05 08:00 41.51321 28.64181 10886 ft 326 kts 336°
2026-05-05 08:01 41.53409 28.62842 11533 ft 339 kts 336°
2026-05-05 08:01 41.55568 28.61456 12485 ft 347 kts 336°
2026-05-05 08:01 41.57669 28.59935 13482 ft 354 kts 327°
2026-05-05 08:01 41.59448 28.57605 14287 ft 364 kts 314°
2026-05-05 08:02 41.61113 28.55012 15144 ft 370 kts 315°
2026-05-05 08:02 41.62830 28.52435 16208 ft 372 kts 315°
2026-05-05 08:02 41.64582 28.49857 17252 ft 375 kts 315°
2026-05-05 08:02 41.66353 28.47257 18211 ft 381 kts 315°
2026-05-05 08:03 41.67908 28.44348 19007 ft 391 kts 300°
2026-05-05 08:03 41.69012 28.40985 19837 ft 397 kts 295°
2026-05-05 08:03 41.70064 28.37552 20721 ft 400 kts 295°
2026-05-05 08:03 41.71138 28.34089 21605 ft 404 kts 295°
2026-05-05 08:04 41.72240 28.30612 22438 ft 408 kts 295°
2026-05-05 08:04 41.73351 28.27156 23230 ft 412 kts 295°
2026-05-05 08:04 41.74498 28.23620 23977 ft 416 kts 295°
2026-05-05 08:04 41.75661 28.20045 24657 ft 420 kts 295°
2026-05-05 08:05 41.76832 28.16446 25332 ft 423 kts 295°
2026-05-05 08:05 41.78012 28.12811 25980 ft 427 kts 294°
2026-05-05 08:05 41.79206 28.09153 26614 ft 431 kts 296°
2026-05-05 08:05 41.80710 28.05676 27186 ft 434 kts 306°
2026-05-05 08:06 41.82567 28.02455 27748 ft 438 kts 308°
2026-05-05 08:06 41.84486 27.99245 28281 ft 443 kts 308°
2026-05-05 08:06 41.86405 27.95988 28861 ft 446 kts 308°
2026-05-05 08:06 41.88312 27.92675 29451 ft 449 kts 307°
2026-05-05 08:07 41.90184 27.89364 29984 ft 452 kts 307°
2026-05-05 08:07 41.92088 27.85961 30431 ft 456 kts 306°
2026-05-05 08:07 41.94001 27.82536 30801 ft 460 kts 307°
2026-05-05 08:07 41.95927 27.79088 31177 ft 463 kts 307°
2026-05-05 08:08 41.97929 27.75703 31649 ft 462 kts 311°
2026-05-05 08:08 42.00115 27.72546 32186 ft 461 kts 314°
2026-05-05 08:08 42.02387 27.69508 32726 ft 460 kts 316°
2026-05-05 08:08 42.04680 27.66508 33226 ft 459 kts 316°
2026-05-05 08:09 42.06970 27.63496 33705 ft 459 kts 315°
2026-05-05 08:09 42.09239 27.60468 34185 ft 458 kts 316°
2026-05-05 08:09 42.11473 27.57446 34739 ft 453 kts 315°
2026-05-05 08:09 42.13683 27.54424 35179 ft 452 kts 315°
2026-05-05 08:10 42.15861 27.51430 35473 ft 455 kts 315°
2026-05-05 08:10 42.18074 27.48375 35771 ft 456 kts 315°
2026-05-05 08:10 42.20284 27.45319 36157 ft 455 kts 315°
2026-05-05 08:10 42.22491 27.42265 36559 ft 454 kts 315°
2026-05-05 08:11 42.24689 27.39220 36943 ft 453 kts 315°
2026-05-05 08:11 42.26885 27.36176 37273 ft 453 kts 315°
2026-05-05 08:11 42.29087 27.33124 37595 ft 453 kts 315°
2026-05-05 08:11 42.31285 27.30072 37925 ft 453 kts 315°
2026-05-05 08:12 42.35721 27.23905 38062 ft 460 kts 315°
2026-05-05 08:12 42.40153 27.17729 38047 ft 454 kts 315°
2026-05-05 08:13 42.44525 27.11623 38053 ft 450 kts 315°
2026-05-05 08:13 42.48886 27.05520 38066 ft 450 kts 315°
2026-05-05 08:14 42.53243 26.99411 38064 ft 451 kts 315°
2026-05-05 08:14 42.57584 26.93310 38054 ft 452 kts 315°
2026-05-05 08:15 42.61961 26.87145 38062 ft 454 kts 315°
2026-05-05 08:15 42.66343 26.80960 38059 ft 455 kts 315°
2026-05-05 08:16 42.70729 26.74756 38060 ft 455 kts 315°
2026-05-05 08:16 42.75119 26.68531 38061 ft 456 kts 315°
2026-05-05 08:17 42.79487 26.62327 38059 ft 456 kts 315°
2026-05-05 08:17 42.83913 26.56123 38059 ft 456 kts 316°
2026-05-05 08:18 42.88454 26.50073 38058 ft 456 kts 317°
2026-05-05 08:18 42.93006 26.44033 38056 ft 456 kts 316°
2026-05-05 08:19 42.97537 26.37968 38056 ft 456 kts 316°
2026-05-05 08:19 43.02054 26.31884 38054 ft 455 kts 316°
2026-05-05 08:20 43.06535 26.25829 38065 ft 456 kts 316°
2026-05-05 08:20 43.11041 26.19729 38056 ft 456 kts 316°
2026-05-05 08:21 43.15557 26.13602 38062 ft 456 kts 316°
2026-05-05 08:21 43.20061 26.07478 38064 ft 456 kts 316°
2026-05-05 08:22 43.24563 26.01343 38053 ft 456 kts 316°
2026-05-05 08:22 43.29044 25.95224 38064 ft 456 kts 316°
2026-05-05 08:23 43.33543 25.89068 38071 ft 456 kts 316°
2026-05-05 08:23 43.38035 25.82906 38072 ft 456 kts 316°
2026-05-05 08:24 43.42524 25.76735 38065 ft 456 kts 316°
2026-05-05 08:24 43.46977 25.70599 38064 ft 456 kts 316°
2026-05-05 08:25 43.51465 25.64402 38063 ft 456 kts 316°
2026-05-05 08:25 43.55945 25.58201 38062 ft 456 kts 316°
2026-05-05 08:26 43.60419 25.51996 38055 ft 456 kts 316°
2026-05-05 08:26 43.64891 25.45780 38067 ft 455 kts 316°
2026-05-05 08:27 43.69356 25.39559 38062 ft 455 kts 316°
2026-05-05 08:27 43.73783 25.33377 38062 ft 455 kts 316°
2026-05-05 08:28 43.78236 25.27145 38058 ft 455 kts 316°
2026-05-05 08:28 43.82677 25.20916 38058 ft 454 kts 316°
2026-05-05 08:29 43.87110 25.14683 38065 ft 454 kts 316°
2026-05-05 08:30 43.93754 25.05315 38069 ft 454 kts 316°
2026-05-05 08:30 43.97427 25.00108 38049 ft 454 kts 314°
2026-05-05 08:31 44.01644 24.93588 38053 ft 453 kts 313°
2026-05-05 08:31 44.05791 24.86975 38075 ft 453 kts 312°
2026-05-05 08:32 44.09936 24.80363 38066 ft 453 kts 313°
2026-05-05 08:32 44.14081 24.73767 38060 ft 452 kts 313°
2026-05-05 08:33 44.18195 24.67222 38054 ft 452 kts 313°
2026-05-05 08:33 44.22330 24.60632 38058 ft 451 kts 313°
2026-05-05 08:34 44.26457 24.54038 38054 ft 451 kts 313°
2026-05-05 08:34 44.30573 24.47446 38058 ft 451 kts 312°
2026-05-05 08:35 44.34698 24.40823 38055 ft 451 kts 312°
2026-05-05 08:35 44.38812 24.34203 38062 ft 451 kts 312°
2026-05-05 08:36 44.42925 24.27569 38053 ft 451 kts 312°
2026-05-05 08:36 44.47032 24.20929 38061 ft 451 kts 312°
2026-05-05 08:37 44.51104 24.14329 38065 ft 451 kts 312°
2026-05-05 08:37 44.55202 24.07672 38059 ft 451 kts 312°
2026-05-05 08:38 44.59298 24.01003 38056 ft 450 kts 312°
2026-05-05 08:38 44.63373 23.94352 38055 ft 450 kts 312°
2026-05-05 08:39 44.67450 23.87684 38053 ft 449 kts 312°
2026-05-05 08:39 44.71524 23.81003 38055 ft 449 kts 312°
2026-05-05 08:40 44.75587 23.74324 38046 ft 449 kts 312°
2026-05-05 08:40 44.79645 23.67640 38054 ft 449 kts 312°
2026-05-05 08:41 44.83693 23.60955 38050 ft 448 kts 312°
2026-05-05 08:41 44.87735 23.54264 38050 ft 448 kts 312°
2026-05-05 08:42 44.91776 23.47559 38044 ft 448 kts 311°
2026-05-05 08:42 44.95785 23.40891 38056 ft 448 kts 311°
2026-05-05 08:43 44.99820 23.34164 38064 ft 449 kts 311°
2026-05-05 08:43 45.03857 23.27418 38053 ft 449 kts 311°
2026-05-05 08:44 45.07903 23.20640 38055 ft 450 kts 311°
2026-05-05 08:44 45.11940 23.13861 38062 ft 450 kts 311°
2026-05-05 08:45 45.15945 23.07119 38058 ft 450 kts 311°
2026-05-05 08:45 45.19975 23.00320 38075 ft 450 kts 311°
2026-05-05 08:46 45.23997 22.93517 38054 ft 450 kts 311°
2026-05-05 08:46 45.28022 22.86692 38057 ft 451 kts 311°
2026-05-05 08:47 45.32047 22.79852 38062 ft 451 kts 311°
2026-05-05 08:47 45.36043 22.73042 38070 ft 451 kts 311°
2026-05-05 08:48 45.40058 22.66188 38069 ft 450 kts 311°
2026-05-05 08:48 45.44068 22.59324 38058 ft 451 kts 310°
2026-05-05 08:49 45.48078 22.52438 38065 ft 452 kts 310°
2026-05-05 08:49 45.52095 22.45528 38057 ft 453 kts 310°
2026-05-05 08:50 45.56108 22.38605 38049 ft 453 kts 310°
2026-05-05 08:50 45.60115 22.31678 38056 ft 452 kts 310°
2026-05-05 08:51 45.64116 22.24743 38046 ft 452 kts 310°
2026-05-05 08:51 45.68115 22.17794 38053 ft 452 kts 310°
2026-05-05 08:52 45.72084 22.10880 38052 ft 452 kts 310°
2026-05-05 08:52 45.76079 22.03905 38054 ft 452 kts 310°
2026-05-05 08:53 45.80058 21.96939 38049 ft 451 kts 310°
2026-05-05 08:53 45.84021 21.89983 38052 ft 450 kts 310°
2026-05-05 08:54 45.87978 21.83022 38055 ft 449 kts 310°
2026-05-05 08:54 45.91898 21.76108 38060 ft 448 kts 309°
2026-05-05 08:55 45.95830 21.69155 38052 ft 448 kts 309°
2026-05-05 08:55 45.99758 21.62193 38053 ft 448 kts 309°
2026-05-05 08:56 46.03685 21.55215 38056 ft 448 kts 309°
2026-05-05 08:56 46.07600 21.48242 38045 ft 447 kts 309°
2026-05-05 08:57 46.11508 21.41263 38050 ft 447 kts 309°
2026-05-05 08:57 46.15389 21.34314 38048 ft 447 kts 309°
2026-05-05 08:58 46.19297 21.27300 38046 ft 447 kts 309°
2026-05-05 08:58 46.23191 21.20293 38048 ft 447 kts 309°
2026-05-05 08:59 46.27085 21.13270 38050 ft 447 kts 309°
2026-05-05 08:59 46.30948 21.06284 38048 ft 448 kts 309°
2026-05-05 09:00 46.34840 20.99227 38046 ft 448 kts 309°
2026-05-05 09:00 46.38720 20.92175 38051 ft 448 kts 308°
2026-05-05 09:01 46.42604 20.85097 38047 ft 448 kts 308°
2026-05-05 09:01 46.46482 20.78013 38042 ft 448 kts 308°
2026-05-05 09:02 46.50354 20.70920 38038 ft 448 kts 308°
2026-05-05 09:02 46.54223 20.63816 38039 ft 448 kts 308°
2026-05-05 09:03 46.58090 20.56697 38034 ft 449 kts 308°
2026-05-05 09:03 46.61954 20.49566 38035 ft 449 kts 308°
2026-05-05 09:04 46.65789 20.42468 38034 ft 449 kts 308°
2026-05-05 09:04 46.69653 20.35300 38035 ft 449 kts 308°
2026-05-05 09:05 46.73508 20.28130 38034 ft 449 kts 308°
2026-05-05 09:05 46.77360 20.20947 38033 ft 449 kts 308°
2026-05-05 09:06 46.81206 20.13755 38029 ft 449 kts 308°
2026-05-05 09:06 46.85048 20.06554 38026 ft 449 kts 308°
2026-05-05 09:07 46.88866 19.99377 38030 ft 449 kts 308°
2026-05-05 09:07 46.92707 19.92139 38020 ft 450 kts 307°
2026-05-05 09:08 46.96539 19.84899 38020 ft 450 kts 307°
2026-05-05 09:08 47.00362 19.77658 38022 ft 450 kts 307°
2026-05-05 09:09 47.04185 19.70395 38024 ft 449 kts 307°
2026-05-05 09:09 47.08005 19.63122 38013 ft 450 kts 307°
2026-05-05 09:10 47.11793 19.55888 38020 ft 449 kts 307°
2026-05-05 09:10 47.15539 19.48719 37930 ft 432 kts 307°
2026-05-05 09:10 47.17352 19.45241 37590 ft 425 kts 307°
2026-05-05 09:11 47.19139 19.41810 37214 ft 419 kts 307°
2026-05-05 09:11 47.20903 19.38417 36805 ft 415 kts 306°
2026-05-05 09:11 47.22644 19.35066 36392 ft 411 kts 306°
2026-05-05 09:11 47.24369 19.31740 35968 ft 407 kts 306°
2026-05-05 09:12 47.26081 19.28434 35545 ft 404 kts 306°
2026-05-05 09:12 47.27775 19.25161 35114 ft 401 kts 306°
2026-05-05 09:12 47.29442 19.21936 34698 ft 399 kts 306°
2026-05-05 09:12 47.31117 19.18693 34284 ft 397 kts 306°
2026-05-05 09:13 47.32782 19.15459 33828 ft 395 kts 304°
2026-05-05 09:13 47.34297 19.12108 33354 ft 392 kts 298°
2026-05-05 09:13 47.35537 19.08550 32911 ft 388 kts 294°
2026-05-05 09:13 47.36666 19.04937 32499 ft 389 kts 293°
2026-05-05 09:14 47.37792 19.01291 32083 ft 391 kts 293°
2026-05-05 09:14 47.38923 18.97634 31659 ft 393 kts 293°
2026-05-05 09:14 47.40062 18.93957 31249 ft 395 kts 293°
2026-05-05 09:14 47.41214 18.90256 30783 ft 397 kts 293°
2026-05-05 09:15 47.42369 18.86544 30368 ft 399 kts 293°
2026-05-05 09:15 47.43522 18.82848 29934 ft 402 kts 293°
2026-05-05 09:15 47.44692 18.79090 29406 ft 404 kts 293°
2026-05-05 09:15 47.45866 18.75314 28931 ft 405 kts 293°
2026-05-05 09:16 47.47044 18.71524 28480 ft 406 kts 293°
2026-05-05 09:16 47.48223 18.67722 28017 ft 407 kts 293°
2026-05-05 09:16 47.49404 18.63908 27542 ft 408 kts 292°
2026-05-05 09:16 47.50583 18.60091 27079 ft 409 kts 292°
2026-05-05 09:17 47.51767 18.56258 26610 ft 410 kts 292°
2026-05-05 09:17 47.52950 18.52424 26170 ft 410 kts 292°
2026-05-05 09:17 47.54097 18.48554 25693 ft 410 kts 289°
2026-05-05 09:17 47.55012 18.44559 25233 ft 410 kts 285°
2026-05-05 09:18 47.55575 18.41893 24923 ft 410 kts 285°
2026-05-05 09:18 47.56420 18.37852 24473 ft 411 kts 285°
2026-05-05 09:18 47.57540 18.32488 23849 ft 412 kts 285°
2026-05-05 09:18 47.58394 18.28428 23370 ft 413 kts 285°
2026-05-05 09:19 47.59250 18.24362 22817 ft 414 kts 285°
2026-05-05 09:19 47.59829 18.21619 22478 ft 413 kts 284°
2026-05-05 09:19 47.60676 18.17607 21998 ft 412 kts 284°
2026-05-05 09:19 47.61530 18.13549 21534 ft 411 kts 284°
2026-05-05 09:20 47.62382 18.09500 21046 ft 411 kts 284°
2026-05-05 09:20 47.63231 18.05455 20581 ft 411 kts 284°
2026-05-05 09:20 47.64078 18.01411 20098 ft 410 kts 284°
2026-05-05 09:20 47.64924 17.97368 19630 ft 410 kts 284°
2026-05-05 09:21 47.65758 17.93372 19170 ft 411 kts 284°
2026-05-05 09:21 47.66612 17.89270 18689 ft 411 kts 283°
2026-05-05 09:21 47.67445 17.85262 18202 ft 412 kts 283°
2026-05-05 09:21 47.68286 17.81205 17667 ft 412 kts 283°
2026-05-05 09:22 47.69124 17.77156 17211 ft 408 kts 283°
2026-05-05 09:22 47.69950 17.73165 16813 ft 399 kts 283°
2026-05-05 09:22 47.70755 17.69265 16411 ft 391 kts 283°
2026-05-05 09:22 47.71543 17.65436 16016 ft 384 kts 283°
2026-05-05 09:23 47.72318 17.61663 15632 ft 377 kts 283°
2026-05-05 09:23 47.73076 17.57964 15258 ft 371 kts 283°
2026-05-05 09:23 47.73822 17.54321 14878 ft 366 kts 283°
2026-05-05 09:23 47.74609 17.50749 14518 ft 361 kts 288°
2026-05-05 09:24 47.75811 17.47470 14143 ft 363 kts 301°
2026-05-05 09:24 47.77324 17.44558 13783 ft 358 kts 303°
2026-05-05 09:24 47.78817 17.41632 13386 ft 353 kts 302°
2026-05-05 09:24 47.80269 17.38701 13000 ft 350 kts 302°
2026-05-05 09:25 47.81694 17.35795 12608 ft 346 kts 302°
2026-05-05 09:25 47.83107 17.32905 12223 ft 343 kts 302°
2026-05-05 09:25 47.84505 17.30044 11840 ft 341 kts 302°
2026-05-05 09:25 47.85893 17.27198 11466 ft 338 kts 302°
2026-05-05 09:26 47.87270 17.24377 11105 ft 336 kts 302°
2026-05-05 09:26 47.88644 17.21568 10729 ft 334 kts 302°
2026-05-05 09:26 47.90002 17.18780 10379 ft 332 kts 302°
2026-05-05 09:26 47.91346 17.16018 10128 ft 326 kts 302°
2026-05-05 09:27 47.92658 17.13324 10023 ft 316 kts 302°
2026-05-05 09:27 47.93929 17.10711 9871 ft 307 kts 302°
2026-05-05 09:27 47.95167 17.08161 9730 ft 302 kts 301°
2026-05-05 09:27 47.96390 17.05632 9497 ft 299 kts 301°
2026-05-05 09:28 47.97604 17.03126 9185 ft 297 kts 301°
2026-05-05 09:28 47.98814 17.00627 8842 ft 296 kts 301°
2026-05-05 09:28 48.00016 16.98143 8523 ft 294 kts 301°
2026-05-05 09:28 48.01212 16.95672 8227 ft 291 kts 301°
2026-05-05 09:29 48.02393 16.93227 7934 ft 289 kts 301°
2026-05-05 09:29 48.03561 16.90804 7647 ft 288 kts 301°
2026-05-05 09:29 48.04726 16.88382 7369 ft 286 kts 301°
2026-05-05 09:29 48.05873 16.86003 7066 ft 285 kts 301°
2026-05-05 09:30 48.07027 16.83601 6893 ft 283 kts 301°
2026-05-05 09:30 48.08177 16.81213 6697 ft 283 kts 301°
2026-05-05 09:30 48.09326 16.78824 6467 ft 283 kts 301°
2026-05-05 09:30 48.10476 16.76433 6247 ft 281 kts 301°
2026-05-05 09:31 48.11844 16.74338 5851 ft 290 kts 324°
2026-05-05 09:31 48.13653 16.72988 5641 ft 290 kts 331°
2026-05-05 09:31 48.15460 16.71675 5643 ft 287 kts 329°
2026-05-05 09:31 48.17236 16.70318 5609 ft 286 kts 329°
2026-05-05 09:32 48.18996 16.68958 5601 ft 284 kts 329°
2026-05-05 09:32 48.20735 16.67617 5509 ft 277 kts 328°
2026-05-05 09:32 48.22433 16.66335 5346 ft 269 kts 332°
2026-05-05 09:32 48.24170 16.65444 5192 ft 267 kts 341°
2026-05-05 09:33 48.25968 16.64741 4944 ft 266 kts 342°
2026-05-05 09:33 48.27757 16.64039 4691 ft 263 kts 337°
2026-05-05 09:33 48.29273 16.62690 4412 ft 249 kts 307°
2026-05-05 09:33 48.30070 16.60520 4161 ft 232 kts 275°
2026-05-05 09:34 48.30091 16.58190 3914 ft 219 kts 258°
2026-05-05 09:34 48.29879 16.55935 3687 ft 217 kts 256°
2026-05-05 09:34 48.29466 16.53806 3373 ft 207 kts 233°
2026-05-05 09:34 48.28413 16.52497 3107 ft 194 kts 196°
2026-05-05 09:35 48.27119 16.52336 3022 ft 183 kts 182°
2026-05-05 09:35 48.24691 16.52684 3011 ft 173 kts 175°
2026-05-05 09:35 48.23506 16.52990 2887 ft 174 kts 172°
2026-05-05 09:36 48.22342 16.53424 2666 ft 169 kts 169°
2026-05-05 09:36 48.21263 16.53876 2449 ft 153 kts 168°
2026-05-05 09:36 48.20302 16.54285 2284 ft 136 kts 168°
2026-05-05 09:36 48.19437 16.54652 2102 ft 126 kts 168°
2026-05-05 09:37 48.18576 16.55017 1955 ft 130 kts 167°
2026-05-05 09:37 48.17720 16.55380 1758 ft 126 kts 167°
2026-05-05 09:37 48.16889 16.55731 1603 ft 123 kts 166°
2026-05-05 09:37 48.16049 16.56087 1436 ft 125 kts 165°
2026-05-05 09:38 48.15208 16.56445 1274 ft 126 kts 163°
2026-05-05 09:38 48.14362 16.56813 1084 ft 128 kts 162°
2026-05-05 09:38 48.13480 16.57184 940 ft 135 kts 162°
2026-05-05 09:38 48.12562 16.57567 784 ft 138 kts 161°
2026-05-05 09:39 48.11640 16.57960 625 ft 131 kts 164°
2026-05-05 09:39 48.10868 16.58288 623 ft 95 kts 164°
2026-05-05 09:39 48.10505 16.58440 624 ft 30 kts 165°
2026-05-05 09:39 48.10301 16.58458 622 ft 30 kts 188°
2026-05-05 09:40 48.10144 16.58398 625 ft 15 kts 206°
2026-05-05 09:40 48.10092 16.58274 625 ft 15 kts 255°
2026-05-05 09:40 48.10152 16.58171 626 ft 15 kts 341°
2026-05-05 09:40 48.10251 16.58127 617 ft 15 kts 344°
2026-05-05 09:41 48.10351 16.58087 627 ft 15 kts 345°
2026-05-05 09:41 48.10449 16.58045 623 ft 15 kts 343°
2026-05-05 09:41 48.10550 16.58002 618 ft 16 kts 345°
2026-05-05 09:41 48.10672 16.57951 626 ft 22 kts 343°
2026-05-05 09:42 48.10841 16.57879 625 ft 28 kts 345°
2026-05-05 09:42 48.10999 16.57814 626 ft 14 kts 344°
2026-05-05 09:42 48.11066 16.57715 620 ft 15 kts 296°
2026-05-05 09:42 48.11119 16.57552 625 ft 20 kts 294°
2026-05-05 09:43 48.11182 16.57356 626 ft 21 kts 296°
2026-05-05 09:43 48.11247 16.57156 623 ft 21 kts 296°
2026-05-05 09:43 48.11313 16.56953 617 ft 22 kts 296°
2026-05-05 09:43 48.11381 16.56749 624 ft 22 kts 296°
2026-05-05 09:44 48.11447 16.56542 625 ft 22 kts 295°
2026-05-05 09:44 48.11514 16.56335 622 ft 22 kts 296°
2026-05-05 09:44 48.11582 16.56129 625 ft 22 kts 296°
2026-05-05 09:44 48.11649 16.55922 626 ft 22 kts 296°
2026-05-05 09:45 48.11688 16.55807 625 ft 8 kts 300°
2026-05-05 09:45 48.11734 16.55787 624 ft 8 kts 18°
2026-05-05 09:45 48.11782 16.55829 625 ft 8 kts 49°
2026-05-05 09:45 48.11798 16.55911 616 ft 8 kts 78°
2026-05-05 09:46 48.11806 16.55970 625 ft 2 kts 79°
2026-05-05 09:46 48.11807 16.55978 627 ft 0 kts 79°